     2.10           OBSERVATION DATA    G (GPS)             RINEX VERSION / TYPE
teqc 2002Apr3 Duncan Agnew 20050511 23:58:26UTC             PGM / RUN BY / DATE
OSX 5.3|G3|cc|OSX 5.3+|G3+                                  COMMENT
BIT 2 OF LLI FLAGS DATA COLLECTED UNDER A/S CONDITION       COMMENT
IVPN 108                                                    MARKER NAME
6893                                                        MARKER NUMBER
Alex Espinoza Nolte Engineering                             OBSERVER / AGENCY
220136893 TRIMBLE 4800 NP 1.20 / SP 1.43                    REC # / TYPE / VERS
N/A TRM4800                                                 ANT # / TYPE
 -2297505.0000 -4831435.0000  3460880.0000                  APPROX POSITION XYZ
        2.0000        0.0000        0.0000                  ANTENNA: DELTA H/E/N
     1     1                                                WAVELENGTH FACT L1/2
     7    C1    L1    L2    P1    P2    S1    S2            # / TYPES OF OBSERV
SNR is mapped to RINEX snr flag value [1-9]                 COMMENT
L1: 3 -> 1; 8 -> 5; 40 -> 9                                 COMMENT
L2: 1 -> 1; 5 -> 5; 60 -> 9                                 COMMENT
  2004     6    30    17    23   20.0000000     GPS         TIME OF FIRST OBS
                                                            END OF HEADER
 04  6 30 17 23 20.0000000  0  8G 3G 9G14G15G18G19G21G22
  22183289.8534     -30015.17659    -18422.39657                  22183287.2484
        49.2504         36.0004
  23344050.4954     -46676.00459    -32790.80357                  23344048.8544
        45.0004         29.5004
  21560398.8944    -131307.61759    -89173.54858                  21560396.0344
        49.2504         40.2504
  20367563.3894     -64440.29359    -43749.12858                  20367560.2344
        53.7504         43.2504
  21550332.7884      56286.40259     34211.44457                  21550329.0214
        49.7504         39.2504
  24246675.4714    -109250.24259    -70812.69157                  24246672.2384
        42.5004         27.2504
  21401260.3194      69309.03159     47192.68457                  21401256.8204
        51.0004         38.5004
  20929151.4084      -7262.46959     -5194.05258                  20929146.2944
        52.0004         42.5004
 04  6 30 17 23 30.0000000  0  8G 3G 9G14G15G18G19G21G22
  22181972.2174     -36940.55949    -23818.78347                  22181969.4994
        49.7504         37.2504
  23342049.4994     -57192.65649    -40985.57347                  23342048.2404
        45.7504         30.7504
  21555012.8744    -159611.00049   -111228.10948                  21555010.2954
        49.7504         41.0004
  20364909.5234     -78385.85249    -54615.78748                  20364906.2744
        54.0004         44.5004
  21552659.9314      68515.08649     43740.29348                  21552656.5524
        50.0004         40.2504
  24240948.5334    -139343.89849    -94262.27447                  24240945.3314
        42.5004         27.2504
  21404014.2084      83782.15649     58470.44048                  21404010.6774
        51.0004         39.7504
  20928787.3714      -9175.45749     -6684.68548                  20928782.5784
        52.0004         44.0004
 04  6 30 17 23 40.0000000  0  8G 3G 9G14G15G18G19G21G22
  22180650.5394     -43884.14549    -29229.37947                  22180648.3394
        49.5004         36.7504
  23340044.3124     -67729.22749    -49195.89047                  23340042.9524
        45.2504         30.0004
  21549620.3014    -187947.69549   -133308.64448                  21549618.2094
        48.2504         40.0004
  20362247.4794     -92372.66849    -65514.61048                  20362244.7594
        54.2504         44.5004
  21554974.6314      80679.10949     53218.73948                  21554971.0854
        49.2504         40.2504
  24235215.0774    -169478.58249   -117743.82247                  24235210.5454
        42.2504         26.0004
  21406761.3744      98216.95349     69718.32048                  21406757.3384
        51.0004         40.0004
  20928412.4734     -11144.87549     -8219.29948                  20928407.2874
        52.2504         44.0004
 04  6 30 17 23 50.0000000  0  8G 3G 9G14G15G18G19G21G22
  22179330.2114     -50823.40249    -34636.58547                  22179327.6174
        49.0004         37.0004
  23338039.4464     -78263.07849    -57404.06147                  23338038.0524
        45.0004         30.5004
  21544226.0704    -216295.02049   -155397.45648                  21544223.5624
        47.5004         41.2504
  20359582.7154    -106378.12549    -76427.94248                  20359579.6144
        53.5004         45.0004
  21557281.5174      92801.09049     62664.44748                  21557278.2504
        49.2504         40.5004
  24229476.6514    -199631.57449   -141239.69647                  24229472.7834
        41.5004         27.2504
  21409505.2334     112635.90249     80953.86448                  21409500.7994
        50.7504         40.0004
  20928031.1924     -13148.11349     -9780.26448                  20928025.7044
        52.0004         44.0004
 04  6 30 17 24  0.0000000  0  8G 3G 9G14G15G18G19G21G22
  22178013.4974     -57740.91449    -40026.85847                  22178011.5554
        47.5004         36.0004
  23336038.4284     -88776.68449    -65596.49647                  23336037.0394
        45.5004         30.0004
  21538833.3144    -244635.50449   -177480.94748                  21538830.7294
        48.7504         40.7504
  20356917.3384    -120384.69149    -87342.15448                  20356914.5784
        53.7504         44.5004
  21559583.6624     104898.33649     72090.85648                  21559579.9544
        49.2504         40.2504
  24223739.1744    -229785.38749   -164736.14047                  24223735.0414
        42.0004         27.7504
  21412249.5124     127056.40249     92190.60748                  21412245.1324
        51.0004         40.0004
  20927646.9084     -15167.81249    -11354.06048                  20927641.9914
        52.2504         43.0004
 04  6 30 17 24 10.0000000  0  8G 3G 9G14G15G18G19G21G22
  22176702.4584     -64630.78149    -45395.59347                  22176700.0944
        49.0004         36.2504
  23334043.0634     -99264.15249    -73768.53747                  23334041.4974
        45.5004         30.7504
  21533442.5154    -272963.27049   -199554.53348                  21533439.9214
        46.5004         40.2504
  20354252.7314    -134386.55949    -98252.70148                  20354250.0234
        53.2504         44.2504
  21561881.9084     116976.69149     81502.55148                  21561878.2364
        47.2504         40.0004
  24218001.5064    -259934.13749   -188228.68047                  24217998.0964
        42.7504         28.0004
  21414994.9114     141484.30949    103433.13048                  21414990.6214
        51.0004         40.0004
  20927260.4664     -17198.14849    -12936.14448                  20927255.5044
        52.5004         42.7504
 04  6 30 17 24 20.0000000  0  8G 3G 9G14G15G18G19G21G22
  22175397.0604     -71490.35549    -50740.71547                  22175394.7404
        48.7504         36.2504
  23332053.3494    -109722.80549    -81918.15547                  23332051.9754
        45.0004         31.0004
  21528054.6044    -301275.62549   -221616.09248                  21528051.9764
        46.5004         40.2504
  20351589.8834    -148380.94549   -109157.42648                  20351587.1534
        53.7504         44.2504
  21564177.4454     129038.75849     90901.56148                  21564174.1394
        47.2504         40.0004
  24212265.6914    -290075.11749   -211715.13647                  24212262.5544
        42.2504         26.7504
  21417742.5364     155922.12949    114683.36748                  21417738.4534
        50.7504         39.5004
  20926872.6884     -19236.54749    -14524.50648                  20926867.4534
        52.5004         43.0004
 04  6 30 17 24 30.0000000  0  8G 3G 9G14G15G18G19G21G22
  22174097.6774     -78319.42649    -56062.08547                  22174095.0424
        49.0004         35.2504
  23330067.9284    -120152.41449    -90045.12147                  23330066.8764
        45.0004         29.5004
  21522669.9454    -329572.30549   -243665.45248                  21522667.9054
        47.0004         39.5004
  20348928.4814    -162367.63349   -120056.14448                  20348925.7594
        53.7504         43.5004
  21566469.5524     141084.68849    100287.98248                  21566465.9224
        47.7504         39.5004
  24206531.7064    -320207.95749   -235195.28046                  24206528.3234
        42.5004         25.5004
  21420491.9354     170370.17249    125941.57347                  21420487.4704
        51.5004         38.2504
  20926483.2064     -21282.85949    -16119.04748                  20926478.1614
        52.2504         41.7504
 04  6 30 17 24 40.0000000  0  8G 3G 9G14G15G18G19G21G22
  22172804.7374     -85113.87549    -61356.45647                  22172802.2094
        48.7504         35.7504
  23328089.7474    -130548.69949    -98146.10747                  23328088.7244
        45.0004         30.5004
  21517289.3194    -357848.99249   -265699.23848                  21517286.7564
        48.2504         40.7504
  20346269.1554    -176342.36749   -130945.55348                  20346266.4164
        54.0004         44.5004
  21568759.5264     153118.64149    109665.08948                  21568755.9304
        49.5004         40.2504
  24200799.9524    -350328.43049   -258665.71947                  24200796.7564
        42.5004         27.5004
  21423243.7674     184832.62949    137211.01748                  21423239.4844
        51.0004         39.5004
  20926092.8434     -23332.98049    -17716.54548                  20926087.7654
        51.5004         43.2504
 04  6 30 17 24 50.0000000  0  8G 3G 9G14G15G18G19G21G22
  22171518.3814     -91873.82449    -66623.96147                  22171515.8634
        49.0004         36.2504
  23326118.3584    -140911.77049   -106221.23847                  23326116.2654
        45.5004         30.5004
  21511912.3054    -386105.84049   -287717.56148                  21511909.3224
        48.0004         40.5004
  20343611.9304    -190305.23849   -141825.71848                  20343608.7984
        54.0004         44.5004
  21571047.2604     165140.33249    119032.63348                  21571043.6814
        48.5004         40.2504
  24195070.8444    -380436.59449   -282126.62047                  24195067.4934
        42.5004         28.5004
  21425998.9884     199309.30149    148491.52048                  21425994.8094
        51.0004         39.7504
  20925702.1884     -25387.03949    -19317.11948                  20925697.2074
        52.2504         42.7504
 04  6 30 17 25  0.0000000  0  8G 3G 9G14G15G18G19G21G22
  22170238.2234     -98599.66049    -71864.87047                  22170236.1734
        49.7504         36.5004
  23324152.3694    -151241.94549   -114270.72447                  23324150.5114
        45.0004         30.2504
  21506538.5924    -414343.17649   -309720.66148                  21506536.1124
        47.0004         41.0004
  20340956.9144    -204256.55149   -152696.86248                  20340953.6834
        53.7504         44.5004
  21573332.3864     177149.48049    128390.41048                  21573329.3224
        48.0004         40.5004
  24189343.6024    -410532.75849   -305578.17747                  24189340.1744
        43.0004         28.2504
  21428756.4144     213799.80949    159782.82747                  21428752.0414
        51.2504         39.2504
  20925310.6104     -27445.50449    -20921.11748                  20925305.2494
        52.7504         43.5004
 04  6 30 17 25 10.0000000  0  8G 3G 9G14G15G18G19G21G22
  22168965.0104    -105292.78149    -77080.30747                  22168962.3594
        49.0004         36.7504
  23322192.9864    -161540.53949   -122295.58347                  23322191.1084
        45.5004         30.0004
  21501168.8654    -442562.37949   -331709.64748                  21501166.0534
        49.0004         40.7504
  20338304.1434    -218197.64149   -163560.06148                  20338301.1014
        54.0004         44.5004
  21575614.8694     189144.62949    137737.27448                  21575611.9724
        49.7504         40.5004
  24183618.7714    -440618.25449   -329021.40647                  24183615.2294
        42.7504         27.7504
  21431516.2784     228302.79749    171083.84147                  21431512.0144
        50.7504         39.2504
  20924917.6714     -29509.78949    -22529.65048                  20924912.4204
        52.5004         43.2504
 04  6 30 17 25 20.0000000  0  8G 3G 9G14G15G18G19G21G22
  22167697.4804    -111951.73849    -82269.10547                  22167695.4944
        49.0004         37.0004
  23320239.0164    -171806.08249   -130294.72647                  23320237.1074
        45.0004         31.0004
  21495802.8364    -470761.90249   -353683.30748                  21495800.2404
        49.7504         41.0004
  20335653.5634    -232127.03149   -174414.12948                  20335650.5244
        53.5004         44.5004
  21577895.4734     201127.15249    147074.28848                  21577891.6704
        50.0004         40.5004
  24177895.8024    -470691.53149   -352455.10747                  24177892.1544
        43.5004         27.0004
  21434278.5494     242819.64549    182395.66147                  21434274.4594
        51.2504         39.2504
  20924523.9484     -31578.57049    -24141.69248                  20924518.6504
        52.2504         43.2504
 04  6 30 17 25 30.0000000  0  8G 3G 9G14G15G18G19G21G22
  22166437.1884    -118575.93449    -87430.81247                  22166434.8384
        48.7504         37.0004
  23318291.9134    -182037.85949   -138267.50247                  23318290.0334
        45.5004         29.7504
  21490440.1404    -498941.00849   -375641.03348                  21490437.9874
        50.2504         40.5004
  20333005.4324    -246043.96549   -185258.49048                  20333002.1374
        53.2504         44.5004
  21580173.0674     213097.74249    156402.00948                  21580169.3484
        50.5004         40.5004
  24172175.0954    -500751.87149   -375878.73547                  24172171.8604
        43.5004         28.0004
  21437043.9444     257351.05549    193718.82648                  21437039.8294
        50.7504         40.0004
  20924129.6154     -33651.16049    -25756.70248                  20924124.5754
        52.5004         43.2504
 04  6 30 17 25 40.0000000  0  8G 3G 9G14G15G18G19G21G22
  22165182.5914    -125168.47349    -92567.85747                  22165180.1744
        48.0004         36.2504
  23316350.9584    -192238.86749   -146216.32447                  23316349.0384
        45.2504         29.5004
  21485081.4374    -527102.75849   -397585.25048                  21485078.6914
        50.0004         40.5004
  20330358.6834    -259951.50849   -196095.53648                  20330355.6084
        54.2504         43.7504
  21582448.3224     225053.18449    165717.94048                  21582444.3344
        51.0004         39.5004
  24166456.9924    -530802.31249   -399294.66347                  24166453.2324
        43.0004         27.0004
  21439811.2504     271893.96949    205050.96848                  21439807.1624
        51.0004         39.7504
  20923734.1404     -35730.65649    -27377.08048                  20923729.1994
        51.7504         42.7504
 04  6 30 17 25 50.0000000  0  8G 3G 9G14G15G18G19G21G22
  22163934.1154    -131730.27749    -97680.94047                  22163931.7554
        49.5004         36.5004
  23314415.7544    -202409.95349   -154141.85847                  23314413.5984
        45.5004         30.0004
  21479725.6424    -555248.05549   -419516.64948                  21479723.0204
        50.0004         41.0004
  20327713.5794    -273850.48049   -206925.90148                  20327710.8994
        53.5004         44.2504
  21584720.2984     236992.60549    175021.37247                  21584716.6004
        50.7504         39.2504
  24160740.5874    -560843.63749   -422703.49747                  24160736.7674
        44.0004         29.0004
  21442580.7314     286447.33249    216391.24448                  21442576.7094
        51.2504         39.7504
  20923336.5244     -37818.00049    -29003.59248                  20923331.9254
        52.0004         43.2504
 04  6 30 17 26  0.0000000  0  8G 3G 9G14G15G18G19G21G22
  22162691.2534    -138259.23849   -102768.46347                  22162689.3164
        49.2504         36.7504
  23312485.8174    -212548.96149   -162042.37547                  23312484.0304
        46.0004         29.5004
  21474372.7584    -583374.67649   -441433.49548                  21474370.3154
        50.7504         41.5004
  20325071.0504    -287738.71549   -217747.90448                  20325068.0814
        54.5004         44.5004
  21586989.6684     248918.07849    184313.95148                  21586985.8104
        51.5004         39.7504
  24155025.9764    -590873.66849   -446103.47947                  24155022.3294
        44.2504         29.0004
  21445352.3964     301013.31349    227741.34748                  21445348.1004
        51.5004         40.0004
  20922938.3324     -39911.13749    -30634.60348                  20922933.6514
        52.5004         43.0004
 04  6 30 17 26 10.0000000  0  8G 3G 9G14G15G18G19G21G22
  22161454.3324    -144759.89549   -107833.90147                  22161452.2444
        48.7504         36.7504
  23310561.6614    -222660.39149   -169921.41147                  23310559.7774
        46.0004         30.0004
  21469023.2884    -611487.11349   -463339.28148                  21469020.8514
        50.7504         41.2504
  20322429.1224    -301620.64849   -228565.00048                  20322426.3074
        53.0004         44.2504
  21589255.2704     260824.98849    193592.04648                  21589251.7474
        51.0004         39.5004
  24149312.5604    -620896.82449   -469498.16147                  24149308.7624
        44.0004         29.5004
  21448125.7344     315587.32449    239097.70648                  21448121.7284
        51.0004         40.0004
  20922538.2474     -42014.58649    -32273.66748                  20922533.1404
        52.2504         43.5004
 04  6 30 17 26 20.0000000  0  8G 3G 9G14G15G18G19G21G22
  22160223.9684    -151226.77049   -112873.03547                  22160221.5754
        49.5004         37.5004
  23308643.8084    -232738.64849   -177774.59147                  23308642.3594
        46.2504         29.5004
  21463677.4024    -639579.83249   -485229.70848                  21463674.6434
        50.5004         41.2504
  20319789.8194    -315490.78949   -239372.90448                  20319786.7594
        53.7504         45.0004
  21591518.2934     272718.72349    202859.89148                  21591515.2674
        51.2504         39.7504
  24143602.1124    -650907.55549   -492883.12547                  24143598.2604
        44.5004         30.2504
  21450901.8034     330174.88349    250464.62948                  21450897.9854
        51.0004         40.2504
  20922136.7954     -44122.96949    -33916.56748                  20922131.8964
        52.2504         44.0004
 04  6 30 17 26 30.0000000  0  8G 3G 9G14G15G18G19G21G22
  22158998.9094    -157662.35249   -117887.78047                  22158997.0084
        49.0004         37.2504
  23306731.9884    -242786.17249   -185603.83047                  23306729.3794
        45.7504         30.5004
  21458334.9834    -667655.23849   -507106.63548                  21458332.2874
        50.5004         41.0004
  20317152.0504    -329351.54749   -250173.48648                  20317148.8284
        53.5004         44.5004
  21593778.8804     284596.87149    212115.57848                  21593775.0574
        51.0004         39.5004
  24137892.9824    -680908.25849   -516260.27647                  24137889.1894
        44.2504         29.5004
  21453679.8774     344773.46949    261840.15148                  21453675.8304
        51.2504         39.5004
  20921734.1694     -46238.81649    -35565.27148                  20921729.2574
        52.5004         43.5004
 04  6 30 17 26 40.0000000  0  8G 3G 9G14G15G18G19G21G22
  22157781.0884    -164062.77049   -122875.12747                  22157779.4014
        48.7504         36.7504
  23304826.4304    -252799.07849   -193406.09247                  23304824.3904
        46.0004         29.7504
  21452996.6954    -695709.40249   -528967.02048                  21452993.9274
        50.5004         41.0004
  20314517.1484    -343199.01249   -260963.72948                  20314514.5104
        53.7504         44.2504
  21596037.2524     296463.18449    221362.05048                  21596033.2204
        51.0004         39.5004
  24132187.1334    -710894.99249   -539626.53147                  24132182.7884
        45.0004         28.7504
  21456460.9504     359386.96549    273227.26948                  21456456.6994
        51.2504         39.7504
  20921331.0254     -48358.33249    -37216.85748                  20921325.8564
        52.0004         43.2504
 04  6 30 17 26 50.0000000  0  8G 3G 9G14G15G18G19G21G22
  22156569.8014    -170427.31249   -127834.50547                  22156567.8804
        49.0004         36.5004
  23302927.5284    -262776.57849   -201180.74947                  23302926.0024
        46.2504         30.5004
  21447661.9804    -723741.57049   -550810.26048                  21447659.2524
        50.2504         40.7504
  20311884.7474    -357032.39549   -271742.98548                  20311881.8954
        54.0004         44.5004
  21598293.0064     308318.39549    230599.87047                  21598289.2494
        50.0004         39.2504
  24126483.2424    -740866.97749   -562981.31747                  24126479.5614
        45.0004         29.7504
  21459244.3874     374016.03949    284626.53747                  21459240.5154
        51.0004         39.2504
  20920927.1584     -50480.82049    -38870.74448                  20920921.9244
        52.0004         43.0004
 04  6 30 17 27  0.0000000  0  8G 3G 9G14G15G18G19G21G22
  22155364.9304    -176760.24649   -132769.28147                  22155362.6544
        49.5004         35.5004
  23301034.9244    -272722.89149   -208931.15547                  23301032.8394
        46.5004         29.2504
  21442330.9134    -751755.95349   -572639.66048                  21442328.7934
        50.0004         40.2504
  20309254.4144    -370855.91049   -282514.57448                  20309251.1484
        53.5004         43.7504
  21600546.0954     320158.23049    239825.68047                  21600542.2004
        50.0004         39.0004
  24120782.1104    -770828.39149   -586327.88847                  24120777.7334
        44.2504         29.7504
  21462030.4844     388656.49649    296034.66547                  21462026.3834
        51.2504         38.7504
  20920521.6854     -52610.57049    -40530.30548                  20920517.0264
        52.0004         42.7504
 04  6 30 17 27 10.0000000  0  8G 3G 9G14G15G18G19G21G22
  22154165.5974    -183061.94549   -137679.68047                  22154163.7094
        49.0004         36.5004
  23299148.6464    -282638.34849   -216657.44647                  23299146.3204
        46.7504         28.5004
  21437003.4984    -779752.78949   -594455.35448                  21437000.7884
        49.5004         41.7504
  20306625.6124    -384669.80549   -293278.63648                  20306622.4664
        52.5004         44.2504
  21602796.2314     331982.24649    249039.21348                  21602792.3044
        49.7504         40.0004
  24115082.4904    -800779.45349   -609666.34047                  24115078.5144
        45.0004         30.5004
  21464818.7514     403307.87549    307451.33848                  21464814.6734
        51.0004         40.0004
  20920115.2604     -54747.98849    -42195.81548                  20920110.2894
        51.5004         43.5004
 04  6 30 17 27 20.0000000  0  8G 3G 9G14G15G18G19G21G22
  22152973.2344    -189329.66449   -142563.61847                  22152970.9824
        49.0004         36.5004
  23297267.8584    -292520.13349   -224357.53347                  23297265.7084
        46.2504         29.5004
  21431679.7724    -807729.35949   -616255.26848                  21431676.9814
        49.0004         41.0004
  20303999.0354    -398471.31249   -304033.05048                  20303996.4204
        53.5004         44.5004
  21605044.0064     343793.19149    258242.54548                  21605039.8214
        49.5004         40.0004
  24109385.0854    -830717.41849   -632994.62147                  24109381.2944
        44.5004         30.5004
  21467609.0334     417972.98049    318878.67848                  21467605.5914
        50.2504         39.5004
  20919707.4734     -56890.30149    -43865.14648                  20919702.2244
        52.0004         43.2504
 04  6 30 17 27 30.0000000  0  8G 3G 9G14G15G18G19G21G22
  22151785.9354    -195568.57449   -147425.11247                  22151784.0094
        49.0004         37.5004
  23295393.1564    -302373.33249   -232035.34447                  23295391.0664
        46.2504         30.7504
  21426359.0394    -835690.73449   -638043.35148                  21426356.0934
        48.7504         41.0004
  20301374.1604    -412265.54349   -314781.80148                  20301370.9014
        53.0004         45.0004
  21607287.5964     355585.81349    267431.58448                  21607283.7894
        49.5004         40.0004
  24103689.6804    -860647.26249   -656316.55847                  24103685.3704
        44.7504         30.5004
  21470401.7424     432646.63749    330312.69048                  21470397.3944
        50.5004         40.5004
  20919297.9284     -59042.78949    -45542.41448                  20919292.8994
        51.0004         44.0004
 04  6 30 17 27 40.0000000  0  8G 3G 9G14G15G18G19G21G22
  22150604.7874    -201776.06649   -152262.11947                  22150602.6894
        49.2504         37.0004
  23293523.6694    -312195.23849   -239688.80047                  23293521.4584
        46.5004         30.2504
  21421041.6124    -863634.27049   -659817.52548                  21421038.5004
        48.7504         41.2504
  20298751.1474    -426049.84849   -325522.81948                  20298748.1134
        52.7504         44.2504
  21609528.9894     367362.76249    276608.42547                  21609525.0994
        49.2504         39.0004
  24097996.2774    -890566.36749   -679630.14847                  24097992.0974
        45.0004         30.0004
  21473195.6034     447331.43449    341755.37748                  21473192.3404
        51.5004         39.5004
  20918886.6374     -61202.82049    -47225.55948                  20918881.6184
        52.0004         43.2504
 04  6 30 17 27 50.0000000  0  8G 3G 9G14G15G18G19G21G22
  22149429.3574    -207950.64849   -157073.49147                  22149427.2414
        49.0004         37.7504
  23291660.5934    -321984.26249   -247316.59147                  23291658.7344
        46.0004         29.7504
  21415727.4964    -891558.37149   -681576.56048                  21415725.3424
        47.7504         41.2504
  20296130.1564    -439822.57049   -336254.81848                  20296127.3254
        53.0004         44.2504
  21611767.1144     379125.53149    285774.21347                  21611763.3354
        48.5004         39.0004
  24092305.2494    -920473.10549   -702934.06447                  24092301.4364
        45.0004         29.5004
  21475992.8714     462028.94949    353207.97848                  21475988.6994
        51.0004         39.5004
  20918474.6784     -63368.93749    -48913.44248                  20918469.7354
        52.0004         43.0004
 04  6 30 17 28  0.0000000  0  8G 3G 9G14G15G18G19G21G22
  22148260.5584    -214094.63749   -161861.01247                  22148258.3534
        49.2504         36.7504
  23289803.6784    -331742.68749   -254920.55847                  23289801.6864
        45.7504         30.0004
  21410417.1984    -919465.30949   -703322.22748                  21410414.7584
        48.5004         41.2504
  20293510.9634    -453586.05149   -346979.60648                  20293507.8694
        52.7504         44.2504
  21614002.4104     390871.80549    294927.14547                  21613998.8304
        49.5004         39.0004
  24086616.1464    -950369.75049   -726230.15647                  24086612.4054
        44.2504         30.0004
  21478791.5394     476736.79749    364668.63347                  21478787.9074
        51.0004         39.0004
  20918060.8984     -65543.48049    -50607.89548                  20918055.9214
        52.7504         43.5004
 04  6 30 17 28 10.0000000  0  8G 3G 9G14G15G18G19G21G22
  22147098.2784    -220200.94949   -166619.19147                  22147096.2234
        49.0004         36.5004
  23287954.3584    -341463.32449   -262495.08447                  23287952.3874
        46.0004         29.2504
  21405111.3164    -947347.85949   -725048.89048                  21405108.6574
        49.0004         40.5004
  20290895.1874    -467333.04349   -357691.56148                  20290892.2394
        53.5004         43.5004
  21616235.8694     402608.55549    304072.64047                  21616232.4714
        49.2504         38.5004
  24080930.3824    -980249.08649   -749512.74047                  24080926.4084
        44.5004         29.7504
  21481593.6324     491462.04349    376142.81147                  21481590.0044
        50.2504         38.5004
  20917646.7184     -67719.37549    -52303.40748                  20917641.6414
        52.0004         43.0004
 04  6 30 17 28 20.0000000  0  8G 3G 9G14G15G18G19G21G22
  22145943.2824    -226271.59049   -171349.54647                  22145941.1604
        48.7504         37.0004
  23286111.6174    -351148.11749   -270041.67647                  23286109.5874
        45.7504         30.0004
  21399809.4084    -975207.92649   -746758.01948                  21399806.9084
        48.2504         41.2504
  20288281.9334    -481065.50049   -368392.15548                  20288279.1594
        54.0004         44.5004
  21618467.1094     414333.81349    313209.22147                  21618463.6294
        48.5004         39.2504
  24075247.1814   -1010112.94949   -772783.28247                  24075244.0724
        44.0004         30.2504
  21484398.8104     506202.72749    387629.07647                  21484394.6744
        50.5004         39.0004
  20917231.9134     -69898.64149    -54001.52948                  20917226.7974
        52.2504         43.7504
 04  6 30 17 28 30.0000000  0  8G 3G 9G14G15G18G19G21G22
  22144794.4904    -232308.91049   -176053.95747                  22144792.4294
        48.5004         37.0004
  23284275.0284    -360799.46549   -277562.19847                  23284272.5384
        46.5004         29.2504
  21394511.6184   -1003047.89149   -768451.49048                  21394509.2484
        48.5004         41.0004
  20285671.1964    -494785.73849   -379083.26448                  20285668.0154
        53.5004         45.0004
  21620695.7654     426045.17649    322334.94047                  21620692.2014
        49.5004         39.2504
  24069567.0204   -1039963.71149   -796043.59747                  24069563.3444
        43.5004         30.0004
  21487206.1924     520956.41049    399125.43847                  21487202.8384
        50.0004         39.2504
  20916816.1274     -72083.72749    -55704.18848                  20916811.3504
        51.5004         43.5004
 04  6 30 17 28 40.0000000  0  8G 3G 9G14G15G18G19G21G22
  22143651.4214    -238314.73449   -180733.82647                  22143649.4354
        49.0004         37.5004
  23282444.0904    -370419.15249   -285058.05747                  23282441.9884
        46.0004         30.0004
  21389217.4094   -1030869.58249   -790130.71348                  21389215.0874
        48.5004         42.0004
  20283062.2764    -508495.53149   -389766.20848                  20283059.1784
        54.0004         45.0004
  21622921.2454     437740.66849    331448.31048                  21622917.4854
        49.2504         40.0004
  24063888.4734   -1069803.10549   -819295.06147                  24063885.2684
        43.5004         30.5004
  21490015.8784     535721.29349    410630.53447                  21490012.3444
        50.5004         39.2504
  20916398.6214     -74276.51249    -57412.85248                  20916393.7924
        52.0004         44.0004
 04  6 30 17 28 50.0000000  0  8G 3G 9G14G15G18G19G21G22
  22142515.3424    -244286.71549   -185387.31547                  22142513.1264
        49.2504         37.0004
  23280620.1174    -380004.68049   -292527.30147                  23280617.9354
        46.0004         30.0004
  21383927.2954   -1058670.54349   -811793.80448                  21383924.6704
        49.5004         41.2504
  20280455.9494    -522192.41849   -400439.11348                  20280452.7554
        53.5004         44.7504
  21625144.0634     449422.69549    340551.18047                  21625140.5264
        49.0004         39.0004
  24058212.5544   -1099628.67249   -842535.72947                  24058208.9644
        43.5004         29.0004
  21492828.2554     550499.73449    422146.18047                  21492824.2504
        50.2504         39.0004
  20915980.8984     -76474.60549    -59125.65748                  20915975.8164
        52.5004         43.5004
 04  6 30 17 29  0.0000000  0  8G 3G 9G14G15G18G19G21G22
  22141384.7734    -250228.46549   -190017.25747                  22141382.7344
        48.7504         37.0004
  23278801.3824    -389559.65249   -299972.72747                  23278799.9354
        45.2504         30.0004
  21378640.1284   -1086454.36349   -833443.53248                  21378637.5344
        50.0004         41.2504
  20277851.2804    -535879.95749   -411104.73148                  20277848.1834
        53.5004         44.5004
  21627364.1364     461087.67649    349640.76947                  21627360.5694
        49.5004         39.0004
  24052539.0804   -1129443.96949   -865768.41547                  24052535.9114
        42.7504         29.0004
  21495641.9344     565288.04349    433669.53247                  21495639.0554
        50.7504         39.0004
  20915560.7014     -78681.73849    -60845.49448                  20915555.9624
        52.2504         43.2504
 04  6 30 17 29 10.0000000  0  8G 3G 9G14G15G18G19G21G22
  22140260.1714    -256135.80949   -194620.39047                  22140258.3934
        48.5004         37.2504
  23276990.6184    -399079.75849   -307390.99747                  23276988.3964
        46.0004         30.0004
  21373356.9214   -1114216.77049   -855076.56748                  21373354.5594
        49.5004         41.2504
  20275248.8984    -549553.90649   -421759.75348                  20275245.8974
        54.0004         44.5004
  21629581.4804     472739.81649    358720.35647                  21629577.2544
        49.7504         38.2504
  24046867.9084   -1159244.66449   -888989.73147                  24046864.2984
        43.0004         29.5004
  21498459.1834     580090.48449    445203.87547                  21498455.6334
        50.2504         39.2504
  20915139.5684     -80893.65649    -62569.06548                  20915134.5224
        51.5004         43.5004
 04  6 30 17 29 20.0000000  0  8G 3G 9G14G15G18G19G21G22
  22139142.4294    -262009.22349   -199197.08647                  22139140.2944
        48.7504         36.0004
  23275185.2074    -408565.36749   -314782.36747                  23275182.9224
        46.2504         29.5004
  21368077.7344   -1141958.01249   -876693.12248                  21368075.3124
        49.7504         39.7504
  20272649.5404    -563214.53949   -432404.40848                  20272646.5764
        53.2504         43.2504
  21631796.2734     484378.64149    367789.55247                  21631792.3424
        49.7504         37.2504
  24041199.5984   -1189031.07849   -912199.91647                  24041196.0384
        43.5004         28.7504
  21501278.6654     594906.68049    456748.95147                  21501275.0764
        50.2504         38.0004
  20914717.6554     -83110.78549    -64296.70848                  20914713.1234
        51.7504         42.0004
 04  6 30 17 29 30.0000000  0  8G 3G 9G14G15G18G19G21G22
  22138030.9524    -267849.80549   -203748.19247                  22138028.5844
        48.7504         36.7504
  23273386.8054    -418017.59849   -322147.75347                  23273384.4194
        46.0004         30.7504
  21362802.8334   -1169679.25449   -898294.07548                  21362800.3964
        50.0004         41.5004
  20270051.9904    -576863.04349   -443039.59948                  20270049.3954
        53.0004         44.7504
  21634008.1364     496002.91449    376847.41647                  21634004.2674
        50.2504         39.0004
  24035534.1794   -1218804.30149   -935399.79247                  24035530.2064
        42.7504         28.7504
  21504100.2924     609735.33249    468303.73148                  21504096.6104
        50.0004         39.5004
  20914294.5704     -85334.35549    -66029.35948                  20914289.6824
        52.0004         44.0004
 04  6 30 17 29 40.0000000  0  8G 3G 9G14G15G18G19G21G22
  22136925.6584    -273659.23849   -208275.02847                  22136923.2604
        48.0004         36.7504
  23271593.7314    -427437.99649   -329488.31547                  23271591.7794
        46.0004         30.2504
  21357531.0704   -1197382.05949   -919880.66848                  21357528.7164
        50.2504         41.5004
  20267457.1354    -590500.95749   -453666.53648                  20267454.0554
        54.0004         44.7504
  21636217.1344     507610.97349    385892.66848                  21636213.1994
        50.2504         39.5004
  24029870.4354   -1248565.89849   -958590.62747                  24029867.3874
        42.7504         28.5004
  21506923.7704     624574.92249    479867.05347                  21506920.7084
        49.5004         39.2504
  20913870.0274     -87566.04349    -67768.32848                  20913865.0994
        52.0004         43.2504
 04  6 30 17 29 50.0000000  0  8G 3G 9G14G15G18G19G21G22
  22135826.5104    -279434.86349   -212775.51547                  22135824.5114
        47.7504         37.5004
  23269807.6494    -436823.88749   -336802.00047                  23269806.0464
        45.5004         31.0004
  21352263.4344   -1225063.77049   -941450.82448                  21352260.7924
        50.7504         41.5004
  20264864.5164    -604125.61349   -464283.15748                  20264861.4864
        54.5004         45.0004
  21638423.4534     519205.50049    394927.36248                  21638419.9524
        50.0004         39.7504
  24024210.2954   -1278313.19549   -981770.33447                  24024206.4174
        43.2504         28.5004
  21509750.3454     639428.07049    491440.91948                  21509746.8994
        49.5004         39.7504
  20913444.0834     -89803.26249    -69511.60948                  20913439.5764
        53.0004         44.0004
 04  6 30 17 30  0.0000000  0  8G 3G 9G14G15G18G19G21G22
  22134734.5834    -285175.61349   -217248.82647                  22134732.6324
        48.5004         37.0004
  23268028.0954    -446174.14849   -344087.90747                  23268026.6124
        45.5004         29.2504
  21347000.0644   -1252723.23449   -963003.64748                  21346997.5204
        50.7504         41.0004
  20262274.4154    -617735.82049   -474888.51048                  20262271.7814
        53.0004         44.5004
  21640627.2934     530787.43049    403952.22748                  21640623.5414
        50.5004         39.7504
  24018552.1784   -1308044.93449  -1004937.94247                  24018548.3324
        43.0004         27.7504
  21512580.0324     654295.93449    503026.25147                  21512576.5104
        49.7504         39.0004
  20913017.7744     -92044.94549    -71258.38648                  20913013.0464
        52.5004         44.0004
 04  6 30 17 30 10.0000000  0  8G 3G 9G14G15G18G19G21G22
  22133648.2254    -290882.22749   -221695.54647                  22133645.9264
        48.0004         36.7504
  23266255.8844    -455489.42249   -351346.55447                  23266253.5284
        45.0004         30.0004
  21341740.5704   -1280361.11749   -984539.65248                  21341737.9224
        51.0004         40.7504
  20259687.1924    -631332.20749   -485483.10048                  20259684.1304
        53.0004         44.5004
  21642829.1404     542355.96149    412966.66547                  21642825.2014
        50.2504         39.0004
  24012897.0754   -1337761.83249  -1028093.90247                  24012893.5564
        42.5004         27.5004
  21515411.8794     669177.70749    514622.42947                  21515408.1394
        49.2504         38.5004
  20912590.0554     -94291.87949    -73009.24248                  20912585.7054
        52.5004         43.7504
 04  6 30 17 30 20.0000000  0  8G 3G 9G14G15G18G19G21G22
  22132569.3164    -296552.80549   -226114.17447                  22132567.5044
        48.2504         36.2504
  23264490.3284    -464767.74649   -358576.42347                  23264488.7694
        45.5004         29.7504
  21336485.9474   -1307975.41449  -1006057.28248                  21336483.0034
        51.5004         40.7504
  20257102.8384    -644912.85549   -496065.42748                  20257099.5604
        54.0004         44.5004
  21645028.1424     553913.07449    421972.20147                  21645024.3304
        51.0004         39.2504
  24007245.9194   -1367461.91449  -1051236.85147                  24007241.7784
        43.2504         27.7504
  21518246.9184     684075.13349    526230.81047                  21518242.9064
        50.2504         38.2504
  20912161.7594     -96542.14849    -74762.68948                  20912157.2224
        52.0004         43.5004
 04  6 30 17 30 30.0000000  0  8G 3G 9G14G15G18G19G21G22
  22131496.5314    -302189.87949   -230506.72747                  22131494.6164
        47.5004         36.0004
  23262731.3454    -474011.64849   -365779.44947                  23262729.6194
        44.2504         29.0004
  21331234.9264   -1335568.66049  -1027558.51348                  21331232.1674
        50.5004         39.7504
  20254521.0204    -658480.21549   -506637.40648                  20254517.9664
        54.0004         43.5004
  21647224.8474     565456.19949    430966.82847                  21647221.0884
        50.2504         38.2504
  24001596.2864   -1397147.56649  -1074368.46347                  24001592.8124
        43.0004         26.0004
  21521083.9254     698985.78949    537849.48447                  21521080.1104
        49.0004         37.2504
  20911732.5184     -98798.35949    -76520.78948                  20911727.8574
        52.0004         42.5004
 04  6 30 17 30 40.0000000  0  8G 3G 9G14G15G18G19G21G22
  22130430.4754    -307792.36749   -234872.28947                  22130428.5054
        47.2504         37.5004
  23260978.7224    -483219.87949   -372954.68547                  23260977.1194
        44.0004         30.0004
  21325988.4204   -1363139.64149  -1049042.37448                  21325985.5924
        51.0004         41.2504
  20251942.0984    -672033.08249   -517198.05948                  20251939.3554
        53.7504         44.5004
  21649418.6514     576986.36749    439951.37748                  21649415.2044
        50.0004         39.5004
  23995950.2534   -1426817.60949  -1097487.99647                  23995946.8594
        42.0004         27.5004
  21523924.3334     713910.79349    549479.36047                  21523920.3594
        48.7504         39.0004
  20911302.3834    -101059.42649    -78282.65048                  20911297.5844
        52.5004         43.5004
 04  6 30 17 30 50.0000000  0  8G 3G 9G14G15G18G19G21G22
  22129370.9064    -313361.09849   -239211.56347                  22129368.9854
        47.2504         37.5004
  23259232.8334    -492393.20349   -380102.73647                  23259231.4054
        44.5004         31.0004
  21320746.3604   -1390689.07049  -1070509.45948                  21320743.2454
        51.2504         41.2504
  20249365.7014    -685572.24249   -527748.06048                  20249362.9954
        53.7504         44.5004
  21651610.6024     588502.82849    448925.23347                  21651606.9004
        50.0004         38.7504
  23990307.3594   -1456472.64549  -1120595.79147                  23990304.0574
        41.5004         27.0004
  21526767.0334     728849.30549    561119.75647                  21526763.5894
        48.2504         38.0004
  20910870.7584    -103326.15649    -80048.92748                  20910865.8604
        52.2504         43.5004
 04  6 30 17 31  0.0000000  0  8G 3G 9G14G15G18G19G21G22
  22128317.8624    -318895.15249   -243523.82847                  22128315.9484
        46.5004         37.5004
  23257494.3034    -501530.65249   -387222.83247                  23257492.6424
        43.5004         29.5004
  21315507.7734   -1418216.06249  -1091959.06148                  21315505.2384
        51.5004         41.2504
  20246792.2924    -699096.63349   -538286.55048                  20246788.8164
        53.0004         44.7504
  21653799.6284     600006.44149    457889.08647                  21653795.4404
        50.5004         38.5004
  23984666.9874   -1486111.78149  -1143691.20147                  23984663.3334
        42.0004         28.0004
  21529612.2494     743802.22749    572771.37347                  21529608.4984
        47.5004         39.0004
  20910438.5554    -105597.63349    -81818.92248                  20910433.8864
        52.0004         44.0004
 04  6 30 17 31 10.0000000  0  8G 3G 9G14G15G18G19G21G22
  22127271.1284    -324393.99649   -247808.64347                  22127269.1784
        48.5004         37.5004
  23255762.1514    -510631.70749   -394314.55947                  23255760.4344
        44.0004         30.7504
  21310273.8324   -1445720.01249  -1113390.71148                  21310270.8424
        51.5004         41.0004
  20244221.4784    -712605.70349   -548813.10048                  20244218.2274
        53.5004         44.5004
  21655986.3334     611497.75049    466843.33547                  21655982.5054
        51.2504         38.7504
  23979029.8404   -1515734.35549  -1166773.70347                  23979026.7754
        42.7504         27.7504
  21532461.1664     758770.16849    584434.68347                  21532456.8914
        49.5004         39.0004
  20910005.6814    -107873.35549    -83592.20948                  20910000.7754
        51.5004         43.7504
 04  6 30 17 31 20.0000000  0  8G 3G 9G14G15G18G19G21G22
  22126231.7074    -329859.59849   -252067.56147                  22126229.5864
        48.0004         36.7504
  23254037.1934    -519698.25049   -401379.38447                  23254035.6944
        43.5004         30.0004
  21305044.4304   -1473202.78149  -1134805.84348                  21305041.6124
        50.7504         41.0004
  20241653.4164    -726101.40249   -559329.22448                  20241650.1274
        53.5004         44.5004
  21658170.4674     622974.77049    475786.46647                  21658166.4074
        51.0004         38.7504
  23973396.0024   -1545342.28949  -1189844.80447                  23973392.2784
        43.0004         28.0004
  21535311.6714     773751.16049    596108.17947                  21535308.1204
        49.2504         38.2504
  20909571.0874    -110155.41049    -85370.43648                  20909566.5784
        52.2504         43.5004
 04  6 30 17 31 30.0000000  0  8G 3G 9G14G15G18G19G21G22
  22125196.9124    -335293.94149   -256302.13247                  22125194.9324
        47.0004         36.2504
  23252317.9834    -528732.15249   -408418.78147                  23252316.4424
        42.5004         30.2504
  21299817.8554   -1500666.29749  -1156205.97748                  21299815.0224
        51.0004         40.7504
  20239087.1624    -739585.58249   -569836.37948                  20239084.2794
        53.5004         44.2504
  21660351.1794     634435.52049    484716.91247                  21660347.3834
        50.7504         39.0004
  23967764.4244   -1574937.42249  -1212905.93747                  23967760.1534
        43.2504         29.0004
  21538164.7534     788743.15649    607790.24347                  21538160.3594
        48.5004         38.2504
  20909135.6704    -112445.75049    -87155.12448                  20909130.8274
        52.0004         43.5004
 04  6 30 17 31 40.0000000  0  8G 3G 9G14G15G18G19G21G22
  22124169.5494    -340693.88349   -260509.86647                  22124167.6334
        47.0004         36.0004
  23250605.8034    -537730.30549   -415430.33847                  23250604.5334
        44.2504         28.5004
  21294596.1674   -1528107.36349  -1177588.62448                  21294593.4804
        51.0004         40.5004
  20236524.1424    -753055.05149   -580332.07048                  20236520.7944
        53.2504         44.0004
  21662529.8264     645883.07449    493637.08847                  21662526.2244
        50.5004         39.0004
  23962135.2734   -1604516.57849  -1235954.60547                  23962131.9374
        43.5004         27.5004
  21541020.1184     803749.22749    619483.28447                  21541016.0314
        49.0004         37.5004
  20908698.6314    -114741.25049    -88943.81148                  20908694.0774
        52.5004         43.0004
 04  6 30 17 31 50.0000000  0  8G 3G 9G14G15G18G19G21G22
  22123147.9454    -346061.94949   -264692.77747                  22123146.2044
        47.2504         36.2504
  23248899.4694    -546695.10249   -422415.89147                  23248898.0584
        42.5004         29.7504
  21289377.8034   -1555528.43749  -1198955.68748                  21289375.2644
        50.7504         41.2504
  20233963.4474    -766512.26649   -590818.21448                  20233960.1334
        54.5004         44.7504
  21664704.9544     657314.91849    502545.00848                  21664701.0834
        51.2504         39.7504
  23956508.9954   -1634082.18449  -1258992.72547                  23956505.7364
        43.5004         28.7504
  21543878.0154     818767.00049    631185.43147                  21543873.5974
        50.0004         38.5004
  20908260.3444    -117044.47349    -90738.53848                  20908255.1444
        52.5004         44.0004
 04  6 30 17 32  0.0000000  0  8G 3G 9G14G15G18G19G21G22
  22122133.5094    -351395.19549   -268848.57547                  22122131.0024
        46.7504         36.5004
  23247200.5114    -555623.54749   -429373.12447                  23247199.0474
        42.2504         28.7504
  21284164.6204   -1582926.48449  -1220304.81048                  21284161.6714
        51.5004         41.7504
  20231405.3184    -779954.19949   -601292.44648                  20231401.9954
        53.5004         44.5004
  21666877.8704     668734.05949    511443.02947                  21666874.2334
        50.2504         39.2504
  23950886.0904   -1663631.20749  -1282017.92847                  23950882.3554
        43.7504         28.5004
  21546738.3594     833799.29349    642898.90247                  21546734.2324
        49.2504         38.7504
  20907820.7704    -119352.46949    -92536.97048                  20907816.3314
        52.2504         43.7504
 04  6 30 17 32 10.0000000  0  8G 3G 9G14G15G18G19G21G22
  22121125.2304    -356693.42649   -272977.05747                  22121123.3544
        47.7504         37.0004
  23245508.3364    -564515.34449   -436301.78547                  23245506.7954
        42.7504         29.7504
  21278955.3094   -1610301.23049  -1241635.77048                  21278952.4034
        51.0004         41.7504
  20228850.3314    -793380.56249   -611754.54048                  20228847.2994
        52.7504         44.7504
  21669048.5814     680140.49249    520331.15847                  21669044.7924
        51.0004         38.7504
  23945266.3464   -1693163.27749  -1305029.96347                  23945262.4624
        43.5004         28.5004
  21549601.6704     848846.35949    654623.88947                  21549597.8924
        49.2504         38.7504
  20907381.1964    -121665.08249    -94339.00748                  20907376.3104
        52.2504         44.0004
 04  6 30 17 32 20.0000000  0  8G 3G 9G14G15G18G19G21G22
  22120123.2564    -361959.00049   -277080.11647                  22120121.3274
        46.5004         36.7504
  23243823.2684    -573372.72749   -443203.64347                  23243821.4304
        43.5004         29.7504
  21273749.6654   -1637654.99249  -1262950.38548                  21273746.8514
        51.5004         41.2504
  20226298.1114    -806793.57849   -622206.24148                  20226294.8244
        53.5004         44.2504
  21671216.1884     691531.93049    529207.59747                  21671212.8054
        50.0004         39.0004
  23939649.0464   -1722680.68049  -1328030.52047                  23939645.4674
        44.0004         27.5004
  21552467.4754     863905.84449    666358.54647                  21552463.5544
        48.5004         38.5004
  20906939.8204    -123984.63749    -96146.44748                  20906934.8784
        52.2504         43.5004
 04  6 30 17 32 30.0000000  0  8G 3G 9G14G15G18G19G21G22
  22119127.8204    -367190.62549   -281156.71547                  22119125.6444
        46.5004         36.5004
  23242144.5824    -582194.47349   -450077.72847                  23242142.6194
        43.0004         28.7504
  21268549.0124   -1664986.42649  -1284247.61348                  21268546.0934
        51.0004         41.0004
  20223748.5504    -820191.94949   -632646.53048                  20223745.3154
        53.2504         44.2504
  21673381.2784     702909.66849    538073.36348                  21673377.9824
        49.7504         39.5004
  23934035.8334   -1752182.09049  -1351018.61147                  23934031.5004
        43.7504         27.5004
  21555336.0814     878979.07049    678103.90947                  21555332.0214
        49.0004         38.5004
  20906497.1014    -126309.88349    -97958.33348                  20906492.4904
        52.5004         43.2504
 04  6 30 17 32 40.0000000  0  8G 3G 9G14G15G18G19G21G22
  22118138.3234    -372387.45349   -285206.19147                  22118136.6184
        47.0004         36.2504
  23240472.4894    -590979.62149   -456923.30947                  23240470.7174
        44.0004         29.2504
  21263352.4914   -1692294.51649  -1305526.63148                  21263349.7344
        50.5004         41.0004
  20221201.6704    -833574.66849   -643074.62448                  20221198.8964
        53.7504         44.0004
  21675544.0934     714274.50449    546929.07347                  21675540.6034
        50.0004         38.7504
  23928424.7404   -1781666.46549  -1373993.45047                  23928421.1244
        43.0004         28.2504
  21558207.2104     894066.86749    689860.62547                  21558202.9564
        49.0004         38.2504
  20906053.8804    -128639.98049    -99773.99248                  20906048.8784
        52.5004         43.5004
 04  6 30 17 32 50.0000000  0  8G 3G 9G14G15G18G19G21G22
  22117156.1124    -377549.21149   -289228.34847                  22117154.3234
        48.0004         35.5004
  23238807.7634    -599727.75449   -463740.05047                  23238805.8204
        43.5004         29.0004
  21258160.2784   -1719579.00049  -1326787.26348                  21258157.3374
        50.7504         40.2504
  20218657.9664    -846941.42249   -653490.27548                  20218654.7814
        53.0004         43.7504
  21677704.4074     725626.73449    555774.95847                  21677701.1364
        50.2504         38.0004
  23922817.2744   -1811133.50049  -1396954.75547                  23922813.5174
        43.7504         26.7504
  21561080.8524     909169.45749    701628.86247                  21561076.6824
        49.7504         37.5004
  20905609.5674    -130974.71149   -101593.26548                  20905604.9104
        52.5004         43.0004
 04  6 30 17 33  0.0000000  0  8G 3G 9G14G15G18G19G21G22
  22116180.1084    -382677.37149   -293224.31947                  22116178.6724
        48.0004         36.7504
  23237150.2104    -608440.37949   -470529.10847                  23237148.6684
        43.7504         31.2504
  21252972.0914   -1746841.26249  -1348030.57548                  21252969.8514
        51.2504         41.2504
  20216117.3784    -860293.61349   -663894.58248                  20216113.7544
        53.5004         44.5004
  21679861.7794     736964.89549    564609.88147                  21679858.4614
        51.0004         39.0004
  23917213.7944   -1840584.52349  -1419903.60347                  23917209.0594
        43.5004         28.5004
  21563957.5444     924285.37949    713407.50947                  21563953.5114
        49.2504         38.7504
  20905164.0684    -133315.53549   -103417.28948                  20905159.2824
        52.7504         43.7504
 04  6 30 17 33 10.0000000  0  8G 3G 9G14G15G18G19G21G22
  22115211.2104    -387770.58649   -297193.05247                  22115209.1724
        48.5004         36.5004
  23235499.2014    -617116.01649   -477289.33447                  23235497.7684
        44.7504         29.7504
  21247789.2514   -1774079.84049  -1369255.43348                  21247786.0344
        51.0004         40.7504
  20213579.4554    -873629.79749   -674286.39848                  20213576.4974
        53.0004         44.2504
  21682016.8404     748290.29349    573434.86647                  21682013.5354
        50.7504         38.2504
  23911612.0914   -1870018.04749  -1442838.80147                  23911607.9314
        44.2504         28.5004
  21566836.7954     939416.10949    725197.68147                  21566833.0174
        50.2504         39.0004
  20904717.6824    -135661.07049   -105244.97748                  20904713.2394
        52.0004         43.5004
 04  6 30 17 33 20.0000000  0  8G 3G 9G14G15G18G19G21G22
  22114248.7734    -392827.34849   -301133.38947                  22114246.8484
        48.2504         37.2504
  23233855.4374    -625753.09449   -484019.52147                  23233853.5144
        44.0004         30.5004
  21242610.3204   -1801293.23449  -1390460.68048                  21242607.4174
        50.7504         41.5004
  20211044.8564    -886948.37949   -684664.51948                  20211041.8974
        54.5004         45.0004
  21684169.7694     759604.49649    582251.11848                  21684166.5294
        49.7504         39.5004
  23906015.2604   -1899432.57849  -1465759.21547                  23906010.8934
        44.0004         29.5004
  21569719.1204     954563.29749    737000.66147                  21569715.1114
        50.0004         38.7504
  20904270.7584    -138009.88749   -107075.22248                  20904265.7754
        52.2504         44.0004
 04  6 30 17 33 30.0000000  0  8G 3G 9G14G15G18G19G21G22
  22113292.2254    -397852.26249   -305048.91047                  22113290.8214
        48.2504         36.7504
  23232218.3454    -634356.20349   -490723.25047                  23232216.4644
        44.7504         29.7504
  21237436.0864   -1828485.90649  -1411649.76148                  21237433.3724
        50.7504         41.5004
  20208513.4614    -900253.92649   -695032.47848                  20208510.2344
        53.0004         44.5004
  21686319.8904     770902.84049    591055.01248                  21686316.4294
        50.0004         39.5004
  23900420.0154   -1928832.54349  -1488668.26947                  23900415.4344
        43.0004         29.2504
  21572603.6544     969722.13749    748812.74347                  21572599.8604
        49.7504         38.2504
  20903822.4244    -140366.61749   -108911.63548                  20903817.8224
        52.2504         43.7504
 04  6 30 17 33 40.0000000  0  8G 3G 9G14G15G18G19G21G22
  22112342.5764    -402844.30149   -308938.81247                  22112341.2204
        48.0004         37.0004
  23230587.6934    -642924.28549   -497399.67847                  23230585.8874
        44.5004         29.7504
  21232265.2364   -1855656.93449  -1432821.97548                  21232262.6154
        51.0004         41.0004
  20205983.6194    -913545.37949   -705389.44748                  20205980.6674
        53.5004         44.2504
  21688467.0964     782186.22749    599847.25947                  21688463.5074
        50.5004         39.2504
  23894828.8674   -1958216.93049  -1511565.18947                  23894824.4194
        44.5004         29.5004
  21575490.7884     984893.48449    760634.57047                  21575487.0734
        49.0004         38.0004
  20903372.7704    -142730.33249   -110753.49448                  20903367.6994
        52.5004         43.2504
 04  6 30 17 33 50.0000000  0  8G 3G 9G14G15G18G19G21G22
  22111398.6324    -407805.81649   -312804.94547                  22111396.6664
        47.7504         36.0004
  23228963.3584    -651459.50449   -504050.49147                  23228961.9624
        44.2504         30.5004
  21227098.7004   -1882808.45749  -1453979.01048                  21227095.8754
        50.5004         41.2504
  20203456.7864    -926824.85249   -715737.09748                  20203453.4704
        53.0004         44.5004
  21690610.9634     793452.45749    608626.12447                  21690607.3624
        50.2504         39.2504
  23889239.6384   -1987587.85249  -1534451.58947                  23889235.1324
        44.0004         29.0004
  21578379.4594    1000075.15649    772464.43347                  21578375.9394
        49.2504         38.2504
  20902921.0914    -145103.21949   -112602.49848                  20902915.9074
        52.7504         43.5004
 04  6 30 17 34  0.0000000  0  8G 3G 9G14G15G18G19G21G22
  22110461.9414    -412728.56649   -316640.86747                  22110459.3394
        49.2504         36.0004
  23227347.0834    -659953.63349   -510669.29247                  23227345.6344
        44.2504         29.0004
  21221937.7044   -1909932.20749  -1475114.39148                  21221934.5394
        50.5004         40.5004
  20200933.4064    -940084.13749   -726069.00548                  20200930.3714
        53.7504         44.0004
  21692753.5284     804709.73849    617398.02847                  21692749.4074
        50.5004         38.7504
  23883654.8164   -2016937.03549  -1557321.07947                  23883650.4194
        43.7504         28.2504
  21581272.1194    1015275.39549    784308.77147                  21581268.3304
        49.7504         37.7504
  20902469.1964    -147477.14849   -114452.31248                  20902464.5754
        52.2504         42.5004
 04  6 30 17 34 10.0000000  0  8G 3G 9G14G15G18G19G21G22
  22109531.6874    -417617.91449   -320450.75147                  22109528.8814
        48.5004         36.0004
  23225738.0874    -668411.91049   -517260.15447                  23225735.9884
        44.5004         30.2504
  21216780.2184   -1937033.40649  -1496232.21448                  21216777.1504
        50.7504         41.7504
  20198413.1114    -953328.45349   -736389.25748                  20198410.2154
        53.2504         44.7504
  21694892.9694     815952.63749    626158.71447                  21694889.3364
        50.2504         39.2504
  23878072.7094   -2046269.68449  -1580177.68147                  23878068.7844
        44.0004         28.7504
  21584167.5074    1030488.90649    796163.43147                  21584163.6624
        50.2504         38.2504
  20902016.1794    -149857.44549   -116307.09448                  20902011.7484
        51.5004         43.5004
 04  6 30 17 34 20.0000000  0  8G 3G 9G14G15G18G19G21G22
  22108607.8654    -422469.68749   -324231.34647                  22108606.0784
        48.5004         36.0004
  23224135.6154    -676830.17649   -523819.85047                  23224134.0154
        44.0004         29.5004
  21211628.0004   -1964107.88749  -1517329.19948                  21211624.8114
        51.0004         41.5004
  20195896.5784    -966553.62549   -746694.57948                  20195893.4974
        53.7504         44.5004
  21697030.2494     827185.31349    634911.44947                  21697026.4934
        50.2504         39.2504
  23872495.0584   -2075581.63749  -1603018.13147                  23872490.8704
        43.5004         28.0004
  21587065.5104    1045719.83249    808031.68447                  21587061.4204
        49.2504         38.5004
  20901563.0914    -152240.00849   -118163.64048                  20901558.1644
        52.0004         43.5004
 04  6 30 17 34 30.0000000  0  8G 3G 9G14G15G18G19G21G22
  22107691.5404    -427286.12149   -327984.41647                  22107689.0864
        48.5004         36.2504
  23222541.2734    -685210.51249   -530349.96747                  23222539.1844
        43.7504         30.0004
  21206480.6884   -1991157.71949  -1538406.98748                  21206477.2524
        50.7504         42.2504
  20193383.1834    -979761.75449   -756986.62348                  20193380.1064
        53.5004         44.7504
  21699165.5174     838405.61349    643654.53648                  21699161.7814
        50.5004         39.7504
  23866920.1064   -2104874.95349  -1625844.10347                  23866916.4514
        44.0004         29.2504
  21589966.7094    1060965.95349    819911.76947                  21589963.3364
        50.2504         38.5004
  20901108.5844    -154627.09049   -120023.70748                  20901104.0834
        52.0004         44.0004
 04  6 30 17 34 40.0000000  0  8G 3G 9G14G15G18G19G21G22
  22106781.8024    -432068.17249   -331710.70547                  22106779.2024
        49.0004         36.0004
  23220953.5464    -693553.87149   -536851.28147                  23220952.1934
        43.5004         30.5004
  21201337.9384   -2018183.87549  -1559466.30648                  21201334.8644
        51.0004         42.0004
  20190872.8064    -992953.73849   -767266.09648                  20190870.0014
        53.5004         44.5004
  21701298.0634     849612.46949    652387.15248                  21701295.0424
        50.7504         39.5004
  23861349.8914   -2134150.52349  -1648656.22047                  23861345.8354
        42.5004         28.5004
  21592870.6974    1076226.30149    831802.94947                  21592867.3034
        49.7504         37.7504
  20900653.4844    -157019.62949   -121888.01848                  20900648.6164
        52.0004         43.5004
 04  6 30 17 34 50.0000000  0  8G 3G 9G14G15G18G19G21G22
  22105878.7934    -436813.27049   -335408.19947                  22105876.3194
        48.5004         35.7504
  23219373.3444    -701857.64149   -543321.77547                  23219371.1944
        43.5004         30.2504
  21196199.9134   -2045183.75049  -1580505.18048                  21196196.4544
        52.0004         41.7504
  20188366.1954   -1006126.95349   -777530.94248                  20188362.6144
        52.7504         44.5004
  21703428.7594     860808.39849    661111.23347                  21703424.9454
        50.7504         39.0004
  23855782.4844   -2163405.68749  -1671452.43347                  23855778.5344
        43.2504         28.2504
  21595777.7724    1091503.50049    843707.23547                  21595773.7744
        50.5004         38.0004
  20900197.7504    -159415.08249   -123754.61148                  20900192.4634
        51.7504         44.0004
 04  6 30 17 35  0.0000000  0  8G 3G 9G14G15G18G19G21G22
  22104982.9974    -441520.34049   -339076.04047                  22104980.7264
        48.0004         35.5004
  23217800.8884    -710120.60949   -549760.45847                  23217798.5724
        42.5004         30.5004
  21191067.1234   -2072156.10949  -1601522.59048                  21191064.0834
        51.7504         41.5004
  20185863.1974   -1019280.23049   -787780.24248                  20185860.2184
        53.0004         44.5004
  21705557.5134     871994.54349    669827.71247                  21705553.7424
        49.5004         39.0004
  23850219.3034   -2192639.23849  -1694231.82847                  23850215.8804
        40.5004         28.7504
  21598688.2924    1106798.60249    855625.49947                  21598684.6824
        49.0004         37.5004
  20899741.4834    -161812.37949   -125622.62848                  20899736.9474
        51.2504         43.7504
 04  6 30 17 35 10.0000000  0  8G 3G 9G14G15G18G19G21G22
  22104094.5204    -446189.47349   -342714.32947                  22104091.6354
        49.0004         35.0004
  23216236.3214    -718342.84449   -556167.37547                  23216234.6494
        44.5004         29.5004
  21185939.5834   -2099100.93449  -1622518.55148                  21185936.3634
        51.0004         41.0004
  20183363.8454   -1032413.52749   -798013.98448                  20183360.8374
        52.5004         44.0004
  21707684.1104     883170.89149    678536.53847                  21707680.8374
        50.0004         38.5004
  23844660.5704   -2221851.09049  -1716994.29947                  23844656.8194
        41.7504         28.7504
  21601602.4064    1122111.71549    867557.77947                  21601598.6374
        49.7504         37.2504
  20899284.8854    -164211.59449   -127492.15448                  20899280.1344
        51.2504         43.2504
 04  6 30 17 35 20.0000000  0  8G 3G 9G14G15G18G19G21G22
  22103212.4104    -450823.78149   -346325.47647                  22103210.3624
        48.0004         35.5004
  23214679.0574    -726527.36349   -562544.91447                  23214677.1484
        45.0004         29.7504
  21180816.8004   -2126021.33649  -1643495.47748                  21180813.7934
        51.5004         41.2504
  20180867.7864   -1045529.93049   -808234.54848                  20180864.8154
        52.2504         44.7504
  21709808.1104     894334.28949    687235.29747                  21709804.9054
        50.0004         38.2504
  23839105.2864   -2251044.30949  -1739742.24847                  23839101.4764
        42.0004         28.5004
  21604518.8544    1137439.47749    879501.48847                  21604515.4444
        49.5004         37.2504
  20898827.4424    -166615.89849   -129365.63348                  20898822.6714
        50.7504         43.7504
 04  6 30 17 35 30.0000000  0  8G 3G 9G14G15G18G19G21G22
  22102337.3154    -455423.91449   -349910.00947                  22102335.0654
        47.7504         35.7504
  23213128.3264    -734674.73449   -568893.52747                  23213126.8794
        44.0004         29.7504
  21175698.5104   -2152917.91449  -1664453.85848                  21175694.8744
        51.2504         42.0004
  20178375.1894   -1058629.98849   -818442.39248                  20178371.9394
        53.5004         44.5004
  21711929.9784     905484.08649    695923.43247                  21711927.0534
        50.7504         38.5004
  23833553.5704   -2280219.43049  -1762476.09147                  23833549.6724
        41.7504         28.0004
  21607438.5394    1152781.23849    891456.09447                  21607435.1704
        50.0004         37.2504
  20898368.5234    -169025.92649   -131243.57748                  20898363.4024
        50.7504         43.7504
 04  6 30 17 35 40.0000000  0  8G 3G 9G14G15G18G19G21G22
  22101468.5224    -459988.86349   -353467.10947                  22101466.2824
        48.5004         35.7504
  23211585.1374    -742783.94949   -575212.38747                  23211583.5994
        45.0004         29.5004
  21170585.3104   -2179789.58249  -1685392.80248                  21170582.0674
        51.5004         42.0004
  20175885.6304   -1071712.63749   -828636.65648                  20175882.2284
        51.5004         44.7504
  21714049.2294     916621.23849    704601.73747                  21714046.0674
        51.0004         38.7504
  23828005.1404   -2309375.39849  -1785195.01447                  23828001.3544
        42.5004         28.5004
  21610360.8374    1168137.93049    903422.33847                  21610357.2964
        50.2504         37.5004
  20897909.1284    -171440.68449   -133125.20348                  20897904.3384
        48.7504         43.7504
 04  6 30 17 35 50.0000000  0  8G 3G 9G14G15G18G19G21G22
  22100607.1064    -464515.47349   -356994.35247                  22100605.0644
        46.5004         35.7504
  23210050.2154    -750851.77749   -581499.01147                  23210048.1694
        44.2504         30.2504
  21165476.5554   -2206633.13349  -1706309.85948                  21165473.1934
        51.5004         42.0004
  20173399.8084   -1084774.62149   -838814.83448                  20173396.4394
        52.5004         44.7504
  21716167.0714     927748.87549    713272.60247                  21716163.6694
        50.5004         38.5004
  23822461.1854   -2338508.95349  -1807896.46847                  23822457.6874
        41.7504         30.0004
  21613286.4284    1183512.91049    915402.81847                  21613283.3464
        49.0004         37.7504
  20897449.2654    -173856.96149   -135008.03048                  20897444.3394
        51.2504         44.0004
 04  6 30 17 36  0.0000000  0  8G 3G 9G14G15G18G19G21G22
  22099752.8434    -469005.70749   -360493.22947                  22099751.0184
        47.0004         35.5004
  23208522.6584    -758880.19149   -587754.91047                  23208520.8444
        44.5004         31.0004
  21160373.8194   -2233450.45749  -1727206.46148                  21160370.5724
        50.7504         41.7504
  20170917.8304   -1097817.80549   -848978.35048                  20170914.7784
        52.0004         44.7504
  21718282.1194     938864.98449    721934.50947                  21718279.1344
        50.2504         39.0004
  23816921.3644   -2367622.01649  -1830581.96547                  23816917.7314
        42.0004         28.7504
  21616215.5394    1198904.09049    927395.93847                  21616212.2794
        48.2504         38.0004
  20896989.0994    -176276.87149   -136893.67248                  20896984.0984
        50.5004         43.7504
 04  6 30 17 36 10.0000000  0  8G 3G 9G14G15G18G19G21G22
  22098904.7634    -473459.99649   -363964.10847                  22098902.9194
        47.5004         35.5004
  23207002.0074    -766869.46549   -593980.31447                  23207000.3324
        45.0004         29.7504
  21155275.5084   -2260241.86349  -1748082.87748                  21155272.2504
        52.0004         41.7504
  20168439.2944   -1110842.47749   -859127.43748                  20168436.0664
        51.7504         45.0004
  21720394.9964     949969.18849    730587.13147                  21720391.8554
        50.0004         39.0004
  23811384.7974   -2396714.84049  -1853251.67047                  23811381.4384
        41.0004         28.5004
  21619147.3414    1214311.03149    939401.33447                  21619144.0724
        48.5004         38.0004
  20896527.5664    -178700.79749   -138782.44048                  20896522.6764
        49.2504         43.7504
 04  6 30 17 36 20.0000000  0  8G 3G 9G14G15G18G19G21G22
  22098064.0804    -477879.33249   -367407.75647                  22098061.9594
        46.7504         35.5004
  23205488.7464    -774820.54749   -600175.97547                  23205487.6194
        45.2504         30.0004
  21150182.2244   -2287008.33649  -1768939.86348                  21150178.7714
        51.2504         41.7504
  20165964.4144   -1123849.57449   -869262.84048                  20165961.3564
        52.0004         44.7504
  21722506.0114     961060.54349    739229.73947                  21722502.4734
        50.7504         38.7504
  23805852.5104   -2425788.28549  -1875906.29047                  23805848.9324
        41.7504         28.0004
  21622081.9994    1229732.76649    951418.25847                  21622078.6094
        48.7504         37.2504
  20896065.7284    -181129.80149   -140675.17348                  20896060.5024
        50.2504         44.0004
 04  6 30 17 36 30.0000000  0  8G 3G 9G14G15G18G19G21G22
  22097229.9964    -482260.62549   -370821.75947                  22097228.0444
        47.7504         35.2504
  23203983.5054    -782730.31249   -606339.43447                  23203981.8214
        45.2504         31.0004
  21145093.9134   -2313746.69549  -1789774.94348                  21145090.6494
        51.2504         41.2504
  20163493.1054   -1136836.00449   -879382.14448                  20163489.8424
        53.5004         44.7504
  21724614.5304     972142.00049    747864.62447                  21724611.0934
        50.7504         39.0004
  23800324.5194   -2454839.24249  -1898543.38847                  23800320.7284
        42.2504         28.7504
  21625020.1514    1245172.46549    963449.17947                  21625016.8204
        49.0004         37.7504
  20895603.0374    -183560.75849   -142569.44048                  20895597.9714
        50.7504         43.2504
 04  6 30 17 36 40.0000000  0  8G 3G 9G14G15G18G19G21G22
  22096402.9544    -486608.56249   -374209.75847                  22096400.5544
        47.0004         34.7504
  23202485.6824    -790603.34449   -612474.27947                  23202484.1634
        45.2504         29.5004
  21140010.4934   -2340461.54749  -1810591.71048                  21140007.1334
        52.0004         41.7504
  20161025.0084   -1149806.31649   -889488.87748                  20161021.8984
        51.7504         45.0004
  21726720.5784     983208.99649    756488.25747                  21726717.0804
        50.2504         38.5004
  23794799.1434   -2483872.28549  -1921166.53447                  23794795.8534
        41.7504         29.2504
  21627960.9984    1260625.48849    975490.49947                  21627957.4754
        48.5004         38.0004
  20895138.9584    -185998.37549   -144468.87148                  20895134.1144
        48.7504         44.0004
 04  6 30 17 36 50.0000000  0  8G 3G 9G14G15G18G19G21G22
  22095582.6744    -490918.53149   -377568.17747                  22095580.6644
        46.2504         35.2504
  23200995.4504    -798435.03949   -618576.88947                  23200993.8674
        45.5004         30.0004
  21134931.9374   -2367148.24649  -1831386.52848                  21134928.4404
        51.5004         41.2504
  20158560.5344   -1162755.85549   -899579.42248                  20158557.6274
        51.2504         45.2504
  21728824.6034     994265.99249    765104.08647                  21728821.4374
        51.0004         39.0004
  23789279.1104   -2512882.63349  -1943771.97947                  23789275.5284
        41.7504         29.2504
  21630904.8114    1276096.32049    987545.67947                  21630901.9744
        48.2504         38.0004
  20894674.8334    -188438.07849   -146369.94248                  20894669.7214
        49.2504         43.7504
 04  6 30 17 37  0.0000000  0  8G 3G 9G14G15G18G19G21G22
  22094769.9054    -495190.09849   -380896.67747                  22094767.8394
        46.5004         35.0004
  23199513.1624    -806224.85249   -624646.86447                  23199511.0134
        45.5004         30.7504
  21129859.0924   -2393806.27049  -1852159.00348                  21129855.6404
        51.0004         41.7504
  20156100.5434   -1175684.09449   -909653.36748                  20156097.5724
        50.7504         45.5004
  21730927.1534    1005313.53949    773712.55248                  21730923.1534
        50.7504         39.5004
  23783762.8674   -2541869.87149  -1966359.40047                  23783759.7164
        41.5004         29.5004
  21633852.5774    1291585.43049    999615.11547                  21633848.8044
        48.0004         38.7504
  20894210.0574    -190879.39849   -148272.26348                  20894205.4144
        48.7504         44.2504
 04  6 30 17 37 10.0000000  0  8G 3G 9G14G15G18G19G21G22
  22093963.8224    -499424.84049   -384196.47447                  22093961.7194
        46.7504         35.5004
  23198038.5334    -813974.21149   -630685.34747                  23198036.6374
        45.2504         30.2504
  21124791.3304   -2420437.07849  -1872910.28848                  21124788.0644
        51.5004         41.7504
  20153644.2024   -1188592.46549   -919711.84948                  20153641.1924
        50.2504         45.0004
  21733027.3494    1016350.10249    782312.47247                  21733023.9154
        50.5004         39.0004
  23778250.7034   -2570835.32449  -1988929.88347                  23778247.3574
        42.0004         29.0004
  21636803.1114    1307091.26249   1011697.54947                  21636799.6654
        48.7504         38.0004
  20893745.0624    -193323.89149   -150177.06848                  20893740.3214
        48.2504         43.7504
 04  6 30 17 37 20.0000000  0  8G 3G 9G14G15G18G19G21G22
  22093166.1344    -503617.82849   -387463.75247                  22093163.9904
        46.2504         35.0004
  23196572.2154    -821678.24649   -636688.48847                  23196570.6364
        45.5004         31.0004
  21119729.9394   -2447035.71949  -1893636.48648                  21119726.8844
        51.7504         41.0004
  20151192.5784   -1201476.10949   -929751.04348                  20151189.4394
        51.0004         45.0004
  21735126.2894    1027380.55549    790907.62047                  21735122.7924
        50.2504         39.2504
  23772743.8894   -2599774.02049  -2011479.49747                  23772740.6644
        42.5004         28.5004
  21639757.9364    1322618.71149   1023796.85947                  21639754.4724
        48.5004         37.7504
  20893280.2094    -195766.72349   -152080.56648                  20893275.2834
        48.2504         43.5004
 04  6 30 17 37 30.0000000  0  8G 3G 9G14G15G18G19G21G22
  22092375.4084    -507773.69549   -390702.10047                  22092373.2414
        47.5004         35.5004
  23195114.2474    -829341.46549   -642659.80547                  23195112.3014
        45.0004         29.7504
  21114673.5074   -2473606.77749  -1914341.20448                  21114670.4244
        52.0004         41.2504
  20148744.6934   -1214339.48849   -939774.45648                  20148741.7404
        52.2504         44.7504
  21737223.4694    1038400.25849    799494.40147                  21737219.5904
        50.7504         39.0004
  23767241.8444   -2628690.53549  -2034011.85047                  23767238.1684
        42.0004         28.7504
  21642715.7604    1338163.26649   1035909.48847                  21642712.3134
        49.0004         38.0004
  20892814.7234    -198212.44549   -153986.33048                  20892809.7474
        51.0004         43.7504
 04  6 30 17 37 40.0000000  0  8G 3G 9G14G15G18G19G21G22
  22091591.1244    -511894.89149   -393913.43347                  22091589.2734
        46.7504         34.0004
  23193663.1074    -836966.25049   -648601.22847                  23193661.0394
        45.2504         29.2504
  21109622.1024   -2500152.56249  -1935026.23748                  21109618.4404
        51.5004         40.5004
  20146300.2214   -1227184.93749   -949783.90848                  20146297.4154
        50.7504         44.0004
  21739317.7704    1049406.66049    808070.80847                  21739314.1694
        50.5004         38.2504
  23761743.0804   -2657587.17249  -2056528.70347                  23761739.4774
        43.5004         28.0004
  21645677.0234    1353722.69949   1048033.70347                  21645673.5824
        48.7504         37.2504
  20892348.3234    -200663.57049   -155896.31148                  20892343.6524
        48.7504         42.7504
 04  6 30 17 37 50.0000000  0  8G 3G 9G14G15G18G19G21G22
  22090813.8054    -515979.90249   -397096.56247                  22090811.4484
        47.0004         35.2504
  23192219.7144    -844551.04349   -654511.44447                  23192217.7394
        44.5004         30.2504
  21104575.7194   -2526671.49249  -1955690.32448                  21104571.8014
        51.5004         42.0004
  20143859.4924   -1240010.86349   -959778.12548                  20143856.3164
        51.7504         45.0004
  21741409.8784    1060401.31349    816638.07347                  21741406.0914
        50.0004         38.7504
  23756248.1084   -2686462.30149  -2079028.79247                  23756244.3744
        42.5004         30.0004
  21648640.5074    1369298.44949   1060170.63947                  21648637.1014
        49.5004         38.0004
  20891881.0444    -203118.55549   -157809.27248                  20891876.3094
        49.2504         43.7504
 04  6 30 17 38  0.0000000  0  8G 3G 9G14G15G18G19G21G22
  22090043.4054    -520028.40249   -400251.24347                  22090041.3304
        46.7504         35.5004
  23190783.9564    -852095.35549   -660390.12347                  23190782.3364
        45.2504         30.0004
  21099534.7634   -2553163.10549  -1976333.13148                  21099531.3214
        52.0004         41.5004
  20141422.6604   -1252816.83249   -969756.80748                  20141419.6604
        51.0004         45.0004
  21743499.9284    1071384.69149    825196.53947                  21743496.3734
        50.5004         38.5004
  23750757.6054   -2715315.46149  -2101511.73547                  23750753.8344
        42.2504         29.0004
  21651608.1604    1384890.40649   1072320.20847                  21651604.2984
        48.7504         38.2504
  20891413.4114    -205577.06249   -159724.99248                  20891408.3104
        49.0004         43.5004
 04  6 30 17 38 10.0000000  0  8G 3G 9G14G15G18G19G21G22
  22089280.8014    -524036.04349   -403374.07147                  22089278.4884
        47.2504         36.0004
  23189357.1294    -859594.89149   -666233.93047                  23189354.8814
        45.0004         30.2504
  21094499.1824   -2579623.16449  -1996951.34548                  21094495.6344
        51.5004         42.5004
  20138990.7664   -1265598.45749   -979716.51648                  20138987.5944
        51.7504         45.5004
  21745588.4414    1082360.93849    833749.45447                  21745584.9034
        50.2504         38.7504
  23745271.5334   -2744142.31249  -2123974.21747                  23745267.7044
        43.2504         29.0004
  21654578.7454    1400503.05549   1084485.89747                  21654575.3564
        49.0004         38.2504
  20890945.4944    -208034.79749   -161640.11248                  20890940.9184
        49.0004         44.2504
 04  6 30 17 38 20.0000000  0  8G 3G 9G14G15G18G19G21G22
  22088524.5374    -528008.32049   -406469.36447                  22088522.5374
        47.0004         35.5004
  23187937.1514    -867055.05549   -672047.03947                  23187935.6114
        45.2504         30.0004
  21089469.1054   -2606057.02049  -2017549.15748                  21089465.4474
        51.7504         42.2504
  20136561.7524   -1278361.11349   -989661.43548                  20136558.3044
        52.5004         45.2504
  21747674.9174    1093324.71549    842292.64947                  21747671.1514
        50.7504         38.7504
  23739790.2914   -2772948.21949  -2146420.38347                  23739786.0984
        43.5004         29.5004
  21657552.8164    1416130.97349   1096663.49047                  21657548.9224
        49.0004         38.0004
  20890476.9494    -210497.23049   -163558.89348                  20890472.1784
        50.5004         44.0004
 04  6 30 17 38 30.0000000  0  8G 3G 9G14G15G18G19G21G22
  22087776.7384    -531940.82849   -409533.65447                  22087774.5754
        45.5004         35.2504
  23186526.0034    -874471.30949   -677825.94547                  23186524.0534
        45.5004         29.7504
  21084444.6834   -2632460.00449  -2038122.89448                  21084441.4864
        51.7504         41.7504
  20134137.5994   -1291100.25049   -999588.03848                  20134134.8764
        52.5004         45.0004
  21749760.0694    1104280.44549    850829.58747                  21749756.4314
        50.7504         38.5004
  23734313.5684   -2801728.55549  -2168846.59847                  23734309.2934
        42.7504         28.2504
  21660530.5864    1431778.69149   1108856.50747                  21660526.9294
        48.0004         38.0004
  20890008.1974    -212959.94149   -165477.88548                  20890003.5664
        50.7504         43.7504
 04  6 30 17 38 40.0000000  0  8G 3G 9G14G15G18G19G21G22
  22087034.5054    -535840.41049   -412572.30947                  22087032.5174
        46.5004         35.7504
  23185121.3924    -881850.49249   -683575.98047                  23185119.9784
        45.0004         30.0004
  21079424.9334   -2658839.12949  -2058678.05548                  21079422.0254
        51.2504         42.0004
  20131716.6244   -1303822.70749  -1009501.64748                  20131713.4534
        52.5004         45.2504
  21751841.5224    1115221.14849    859354.79547                  21751838.4144
        50.0004         38.2504
  23728840.0864   -2830490.16849  -2191258.25247                  23728836.5864
        43.2504         29.0004
  21663510.7834    1447439.54349   1121059.75347                  21663507.3684
        48.7504         37.7504
  20889538.2784    -215429.86349   -167402.50348                  20889533.7644
        50.2504         43.5004
 04  6 30 17 38 50.0000000  0  8G 3G 9G14G15G18G19G21G22
  22086299.6434    -539702.78549   -415581.95147                  22086297.7944
        46.7504         35.2504
  23183725.4894    -889188.32849   -689293.75447                  23183723.9194
        46.0004         29.7504
  21074410.8234   -2685190.01249  -2079211.20748                  21074407.1794
        51.5004         41.0004
  20129299.5774   -1316524.11749  -1019398.85048                  20129296.5194
        52.0004         44.5004
  21753921.4854    1126151.14549    867871.67447                  21753918.2314
        50.0004         37.2504
  23723372.2094   -2859228.68049  -2213651.86847                  23723367.4364
        43.2504         28.5004
  21666494.2634    1463117.70349   1133276.49047                  21666490.0304
        49.2504         37.0004
  20889067.7744    -217902.66849   -169329.35548                  20889062.8044
        50.5004         43.2504
 04  6 30 17 39  0.0000000  0  8G 3G 9G14G15G18G19G21G22
  22085570.6924    -543531.58249   -418565.43747                  22085568.9904
        46.5004         36.5004
  23182336.7114    -896488.30549   -694982.07847                  23182334.4154
        46.0004         30.2504
  21069400.6574   -2711516.19949  -2099725.11548                  21069397.5304
        51.7504         42.2504
  20126885.8144   -1329208.01249  -1029282.39448                  20126883.0284
        51.2504         45.0004
  21755998.8664    1137066.88349    876377.42847                  21755995.6254
        50.5004         38.0004
  23717906.8734   -2887947.54349  -2236030.20147                  23717902.7954
        43.5004         28.5004
  21669480.4484    1478809.84049   1145504.12047                  21669476.8214
        49.0004         37.7504
  20888595.8674    -220381.95749   -171261.27248                  20888590.8184
        48.7504         43.7504
 04  6 30 17 39 10.0000000  0  8G 3G 9G14G15G18G19G21G22
  22084849.9634    -547320.66449   -421517.97947                  22084847.8254
        47.0004         36.0004
  23180955.6744    -903744.25849   -700636.04947                  23180953.7424
        45.2504         30.2504
  21064397.1744   -2737811.41849  -2120214.88348                  21064393.5774
        52.0004         41.7504
  20124476.8314   -1341868.14549  -1039147.43248                  20124473.8214
        52.2504         45.5004
  21758074.3614    1147974.44149    884876.80847                  21758070.9384
        50.5004         38.0004
  23712446.8234   -2916640.55949  -2258388.37947                  23712442.4554
        43.5004         29.7504
  21672470.1804    1494521.47749   1157746.93247                  21672466.0654
        48.5004         37.5004
  20888124.4174    -222861.61749   -173193.48248                  20888119.1194
        50.5004         43.7504
 04  6 30 17 39 20.0000000  0  8G 3G 9G14G15G18G19G21G22
  22084136.0104    -551071.26649   -424440.52047                  22084134.5884
        46.2504         36.0004
  23179583.3394    -910957.35549   -706256.63747                  23179581.3844
        45.7504         31.2504
  21059398.9864   -2764076.89149  -2140681.47548                  21059395.5474
        51.7504         42.2504
  20122072.1024   -1354505.68749  -1048994.87448                  20122068.8704
        52.0004         45.5004
  21760148.3574    1158872.66849    893368.92847                  21760145.0114
        50.0004         38.0004
  23706990.8444   -2945308.88349  -2280727.32847                  23706986.9364
        43.2504         28.0004
  21675463.2044    1510251.55149   1170004.12347                  21675459.6644
        48.2504         38.2504
  20887651.8624    -225342.91849   -175126.95248                  20887646.9194
        51.0004         44.0004
 04  6 30 17 39 30.0000000  0  8G 3G 9G14G15G18G19G21G22
  22083429.8424    -554784.36349   -427333.85247                  22083428.0744
        45.5004         35.5004
  23178218.3664    -918128.41849   -711844.48447                  23178216.7904
        45.5004         31.0004
  21054406.4464   -2790313.43749  -2161125.53348                  21054403.0324
        51.7504         41.7504
  20119671.0634   -1367121.49249  -1058825.37048                  20119668.0704
        52.7504         45.5004
  21762220.3124    1169760.56649    901852.99747                  21762217.1444
        50.5004         38.5004
  23701540.0084   -2973953.33649  -2303047.67747                  23701535.7954
        43.0004         28.2504
  21678460.4004    1525999.20349   1182275.01647                  21678455.9774
        48.0004         37.7504
  20887179.5474    -227826.79349   -177062.44848                  20887174.2614
        51.0004         43.7504
 04  6 30 17 39 40.0000000  0  8G 3G 9G14G15G18G19G21G22
  22082730.2654    -558459.46149   -430197.56547                  22082728.2564
        47.0004         36.2504
  23176862.0034    -925256.94949   -717399.17847                  23176860.3204
        45.0004         30.5004
  21049419.1604   -2816520.57449  -2181546.66948                  21049415.4504
        51.5004         42.5004
  20117274.8884   -1379714.92649  -1068638.43748                  20117271.6594
        53.0004         45.5004
  21764289.9924    1180638.62949    910329.39447                  21764286.6964
        50.2504         38.7504
  23696094.0494   -3002573.32849  -2325348.95647                  23696089.6654
        42.5004         27.7504
  21681460.4144    1541764.93049   1194559.99847                  21681456.7014
        48.2504         37.5004
  20886706.5464    -230312.79349   -178999.58448                  20886701.2934
        52.0004         43.7504
 04  6 30 17 39 50.0000000  0  8G 3G 9G14G15G18G19G21G22
  22082038.9024    -562092.87949   -433028.80647                  22082037.0134
        47.2504         36.2504
  23175513.9564    -932339.12949   -722917.75947                  23175512.6974
        45.2504         30.0004
  21044438.4824   -2842694.47749  -2201941.91848                  21044435.1714
        51.7504         42.2504
  20114883.1094   -1392282.27749  -1078431.19148                  20114880.4384
        53.0004         45.5004
  21766359.3944    1191510.56649    918801.02147                  21766355.8144
        49.5004         38.2504
  23690653.0594   -3031165.03149  -2347628.22947                  23690648.6324
        43.2504         28.2504
  21684464.6794    1557552.20749   1206861.74447                  21684460.7704
        48.5004         37.7504
  20886233.4084    -232797.25449   -180935.53548                  20886228.4914
        51.5004         43.7504
